Location: Puketoi
(40.5833°S, 176.0167°E)
Time: 13:56:27
(UTC+00:00)

Cosmos 1378 Rocket - Pass Details

Date: 08 February 2023
Orbit: 600 x 626 km, 82.5° (Epoch: 23 March)

Event Time Altitude Azimuth Distance (km) Brightness Sun altitude
Exits shadow 15:57:18 32° 305° (NW) 1,068 4.2 -16.6°
Maximum altitude 15:58:46 43° 258° (WSW) 868 4.0 -16.4°
Drops below altitude 10° 16:03:01 10° 186° (S) 2,006 6.6 -15.8°
Sets 16:05:22 0° 179° (S) 2,925 7.6 -15.4°
